Weather History for Tulsa, OK

Change the Weather History Date:

Tuesday, September 24, 2013

  Actual Average Record
Temperature  
Mean Temperature 73 °F 69 °F  
Max Temperature 83 °F 80 °F 99 °F (1931)
Min Temperature 62 °F 58 °F 37 °F (1989)
Degree Days  
Heating Degree Days 0 1  
Month to date heating degree days 0 10  
Since 1 July heating degree days 0 10  
Cooling Degree Days 8 6  
Month to date cooling degree days 312 233  
Year to date cooling degree days 1941 1934  
Growing Degree Days 23 (Base 50)    
Moisture  
Dew Point 57 °F    
Average Humidity 65    
Maximum Humidity 87    
Minimum Humidity 43    
Precipitation  
Precipitation 0.00 in 0.15 in 2.33 in (1945)
Month to date precipitation 1.25 3.44  
Year to date precipitation 24.63 30.92  
Sea Level Pressure  
Sea Level Pressure 29.85 in    
Wind  
Wind Speed 10 mph (West)    
Max Wind Speed 21 mph    
Max Gust Speed 26 mph    
Visibility 10 miles    
Events      
T = Trace of Precipitation, MM = Missing Value Source: NWS Daily Summary

Daily Weather History Graph

Daily Weather History Graph

Search for Another Location

Airport:

Trip Planner

Search our weather history database for the weather conditions in past years. The results will help you decide how hot, cold, wet, or windy it might be!

Date:

Astronomy

Sep. 24, 2013 Rise Set
Actual Time 7:13 AM CDT 7:17 PM CDT
Civil Twilight 6:47 AM CDT 7:42 PM CDT
Nautical Twilight 6:17 AM CDT 8:12 PM CDT
Astronomical Twilight 5:47 AM CDT 8:42 PM CDT
Moon 10:44 PM CDT (9/24) 12:19 PM CDT (9/24)
Length of Visible Light 12h 54m
Length of Day
12h 03m
Waning Gibbous, 73% of the Moon is Illuminated
Sep 24
Waning Gibbous
Sep 26
Last Quarter
Oct 4
New
Oct 11
First Quarter
Oct 18
Full

Hourly Weather History & Observations

Time (CDT) Temp. Heat Index Dew Point Humidity Pressure Visibility Wind Dir Wind Speed Gust Speed Precip Events Conditions
12:53 AM 66.9 °F - 57.9 °F 73% 29.83 in 10.0 mi South 6.9 mph - N/A   Scattered Clouds
1:53 AM 66.9 °F - 57.0 °F 70% 29.83 in 10.0 mi South 10.4 mph - N/A   Partly Cloudy
2:53 AM 68.0 °F - 55.9 °F 65% 29.83 in 10.0 mi South 12.7 mph - N/A   Clear
3:53 AM 68.0 °F - 55.9 °F 65% 29.83 in 10.0 mi SSW 11.5 mph - N/A   Partly Cloudy
4:53 AM 66.0 °F - 55.9 °F 70% 29.83 in 10.0 mi SW 8.1 mph - N/A   Clear
5:53 AM 66.9 °F - 55.9 °F 68% 29.84 in 10.0 mi SW 10.4 mph - N/A   Clear
6:53 AM 66.0 °F - 55.0 °F 68% 29.85 in 10.0 mi SW 5.8 mph - N/A   Clear
7:53 AM 64.9 °F - 54.0 °F 68% 29.86 in 10.0 mi West 9.2 mph - N/A   Clear
8:53 AM 66.9 °F - 53.1 °F 61% 29.87 in 10.0 mi West 13.8 mph 19.6 mph N/A   Clear
9:53 AM 70.0 °F - 54.0 °F 57% 29.88 in 10.0 mi WNW 15.0 mph - N/A   Clear
10:53 AM 73.0 °F - 55.0 °F 53% 29.88 in 10.0 mi WNW 16.1 mph - N/A   Clear
11:53 AM 75.0 °F - 55.9 °F 51% 29.88 in 10.0 mi West 13.8 mph - N/A   Clear
12:53 PM 77.0 °F - 55.9 °F 48% 29.87 in 10.0 mi WNW 11.5 mph - N/A   Clear
1:53 PM 80.1 °F 80.4 °F 57.0 °F 45% 29.86 in 10.0 mi WNW 17.3 mph - N/A   Partly Cloudy
2:53 PM 82.0 °F 81.7 °F 57.0 °F 42% 29.84 in 10.0 mi NW 18.4 mph 24.2 mph N/A   Partly Cloudy
3:53 PM 81.0 °F 81.0 °F 57.0 °F 44% 29.84 in 10.0 mi WNW 15.0 mph 25.3 mph N/A   Partly Cloudy
4:53 PM 82.0 °F 82.0 °F 57.9 °F 44% 29.84 in 10.0 mi NNW 11.5 mph - N/A   Scattered Clouds
5:53 PM 80.1 °F 80.6 °F 57.9 °F 47% 29.83 in 10.0 mi NNW 13.8 mph - N/A   Scattered Clouds
6:53 PM 75.9 °F - 59.0 °F 56% 29.84 in 10.0 mi NNW 5.8 mph - N/A   Partly Cloudy
7:53 PM 72.0 °F - 57.9 °F 61% 29.83 in 10.0 mi North 4.6 mph - N/A   Clear
8:53 PM 70.0 °F - 59.0 °F 68% 29.84 in 10.0 mi NNW 3.5 mph - N/A   Clear
9:53 PM 68.0 °F - 59.0 °F 73% 29.86 in 10.0 mi WNW 3.5 mph - N/A   Clear
10:53 PM 66.0 °F - 60.1 °F 81% 29.86 in 10.0 mi Calm Calm - N/A   Clear
11:53 PM 64.9 °F - 60.1 °F 84% 29.86 in 10.0 mi Calm Calm - N/A   Clear